Find Starlink 34690

NORAD ID: 64863 Int'l Des: 2025-152 Owner: SPXS Country: US Constellation: starlink operational
LEOCIRCULARRETROGRADESSO

当前视图

正在加载3D地球...

About Starlink 34690

Starlink 34690 (NORAD 64863) is a starlink constellation satellite (v2 mini) launched Jul 19, 2025 by SPXS of US. It operates in LEO, CIRCULAR, RETROGRADE, SSO orbit with a mass of 575.00 kg.

关于 Starlink 34690

正在加载描述...

即将过境

Passes for default location (London). Set your location on the main map for personalized predictions.

高度历史

Loading altitude history...

两行轨道根数

1 64863U 25152X 26161.15001693 .00009584 00000-0 66713-3 0 9995
2 64863 97.3801 15.9316 0002775 44.9431 315.2020 15.05659573 49336
Epoch: Jun 10, 2026 • Age: 9 hours

当前状态

高度 578.9 km
速度 7.57 km/s
星下点 -78.95°S, 65.1°E
发射日期 Jul 19, 2025
运行时间 0.8 years
类型 internet

技术详情

分类 Payload
质量 575.00 kg
干质量 530.00 kg
总质量 575.00 kg
长度 0.30 m
直径 4.10 m
跨度 29.00 m
形状 Box + pan
制造商 SPXS
平台类型 Starlink V2MO
阶段状态 In Orbit
所有者/国家 SPXS/US

Most Searched